星链-35867(STARLINK-35867)

导读

STARLINK-35867是美国SpaceX星链互联网星座中的一颗卫星,于2025年12月1日发射入轨,是星链低轨互联网星座组网建设的组成部分。这类卫星主要通过近地轨道部署,为全球范围提供高速低延迟的宽带互联网服务,尤其服务偏远地区及地面网络未覆盖区域,延续了星链星座持续扩容、完善全球覆盖能力的建设节奏。

基本信息
目录编号:
66791
目录名称:
STARLINK-35867
国际标识:
2025-278A
轨道中心:
EARTH
卫星名称:
星链-35867
卫星全名:
星链-35867(STARLINK-35867)
卫星状态:
在轨 (已飞行277 天)
发射日期:
2025-12-01 UTC
国别 :
美国 (US)
星等 :
--
轨道信息
数据来源 国际轨道数据 AOE轨道数据
星历时间 2026-09-04T07:51:20+0800
12小时前
查看轨道信息
2026-09-03T23:00:00+0800
21小时前
查看轨道信息
半长轴 6861.159km 6861.209km
偏心率 0.0001501 0.0001308
轨道倾角 42.998° 43.000°
近地点辐角 254.825° 243.715°
升交点赤经 187.816° 189.903°
平近点角 105.244° 244.818°
近地点 481.992km 482.174km
远地点 484.052km 483.97km
周期 94.266分钟 94.267分钟
每日圈数 15.275892 15.275726
详细信息
固有亮度:
5
最大亮度:
2.5
卫星平台:
Starlink V1.0
覆盖范围:
全球
运营商:
太空探索技术公司
运营商所在国:
美国
制造商(研发单位):
太空探索技术公司
制造商所在国:
美国
使用方式:
暂无
卫星简介
Starlink 计划是 SpaceX 推出的全球卫星互联网项目,通过发射低轨道卫星,为全球尤其是偏远地区提供高速、低延迟的互联网服务。自 2019 年起,Starlink 已部署数千颗卫星,旨在缩小全球数字鸿沟,推动互联网普及。该项目还为军事、航空等行业提供通信支持,带来广泛经济效益。
2D轨道图
3D轨道图
轨道高度分析图
轨道倾角分析图
轨道综合分析图
查看轨道综合分析图
交会数据列表
事件ID 空间交会对象 最接近时刻(TCA) 交会距离 交会风险概率(CRP) 交会风险指数(CRI) 操作
CDM_260906-193205-750906-679121
2026-09-06T
19:32:50+0000
0.363 km
远距离
2.798457E-4 高风险 0.84
CDM_260906-061205-750906-679121
2026-09-06T
06:12:32+0000
0.443 km
远距离
1.871763E-4 高风险 0.8
CDM_260903-184805-322406-679121
2026-09-03T
18:48:24+0000
0.928 km
远距离
3.118801E-5 中风险 0.65
CDM_260906-043805-750906-679121
2026-09-06T
04:38:23+0000
1.580 km
极远距离
3.72478E-6 低风险 0.46
CDM_260906-074605-750906-679121
2026-09-06T
07:46:41+0000
2.354 km
极远距离
1.353389E-6 低风险 0.38
CDM_260906-175805-750906-679121
2026-09-06T
17:58:41+0000
2.364 km
极远距离
1.343328E-6 低风险 0.38
CDM_260906-210605-750906-679121
2026-09-06T
21:06:59+0000
2.420 km
极远距离
1.286069E-6 低风险 0.37